FW2996 Weather Reports


Display with metric or nautical units.
time (UTC)temp
F
wind
direction
speed
MPH
gust
MPH
rain 1hr
in
rain 24hr
in
rain mn
in
humidity
%
barometer
mb
20260508224820 77 154 3.0 13.0 0.00 0.00 0.00 80 1050.1
20260508224317 77 180 5.0 9.0 0.00 0.00 0.00 80 1050.0
20260508223815 77 144 4.0 7.0 0.00 0.00 0.00 80 1050.2
20260508223312 77 175 5.0 9.0 0.00 0.00 0.00 79 1050.2
20260508222809 78 158 5.0 8.0 0.00 0.00 0.00 79 1050.3
20260508222306 78 164 5.0 10.0 0.00 0.00 0.00 79 1050.1
20260508221803 78 125 7.0 9.0 0.00 0.00 0.00 78 1050.2
20260508221258 78 167 4.0 6.0 0.00 0.00 0.00 79 1050.2
20260508220755 78 181 4.0 9.0 0.00 0.00 0.00 78 1050.3
20260508220252 78 172 6.0 9.0 0.00 0.00 0.00 78 1050.2
20260508215748 78 138 2.0 6.0 0.00 0.00 0.00 78 1050.3
20260508215245 78 186 6.0 8.0 0.00 0.00 0.00 77 1050.4
20260508214742 78 149 3.0 4.0 0.00 0.00 0.00 78 1050.3
20260508214234 78 87 5.0 10.0 0.00 0.00 0.00 79 1050.5
20260508213730 78 144 7.0 15.0 0.00 0.00 0.00 78 1050.5
20260508213227 77 106 5.0 10.0 0.00 0.00 0.00 79 1050.5
20260508212723 79 130 9.0 11.0 0.00 0.00 0.00 76 1050.4
20260508212220 79 145 6.0 11.0 0.00 0.00 0.00 77 1050.5
20260508211715 80 127 4.0 8.0 0.00 0.00 0.00 76 1050.5
20260508211212 79 105 5.0 11.0 0.00 0.00 0.00 78 1050.7
20260508210709 77 129 2.0 10.0 0.00 0.00 0.00 80 1051.0
20260508210206 77 125 4.0 11.0 0.00 0.00 0.00 79 1051.1
20260508205703 77 129 4.0 7.0 0.00 0.00 0.00 79 1051.1
20260508205159 78 114 4.0 8.0 0.00 0.00 0.00 78 1051.2
20260508204655 78 122 3.0 7.0 0.00 0.00 0.00 78 1051.2
20260508204152 77 138 3.0 6.0 0.00 0.00 0.00 78 1051.4
20260508203648 77 151 5.0 7.0 0.00 0.00 0.00 77 1051.2
20260508203144 77 85 2.0 9.0 0.00 0.00 0.00 78 1051.5
20260508202640 77 162 2.0 6.0 0.00 0.00 0.00 78 1051.5
20260508202138 76 95 5.0 8.0 0.00 0.00 0.00 78 1051.4
20260508201634 76 95 1.0 7.0 0.00 0.00 0.00 78 1051.4
20260508201131 77 86 5.0 10.0 0.00 0.00 0.00 78 1051.7
20260508200628 76 126 3.0 7.0 0.00 0.00 0.00 78 1051.8
20260508200124 77 143 2.0 6.0 0.00 0.00 0.00 78 1051.7
20260508195621 76 121 3.0 4.0 0.00 0.00 0.00 79 1051.8
20260508195117 76 95 5.0 7.0 0.00 0.00 0.00 78 1051.8
20260508194614 75 131 5.0 8.0 0.00 0.00 0.00 80 1051.8
20260508194111 76 128 2.0 3.0 0.00 0.00 0.00 78 1051.9
20260508193608 77 143 8.0 9.0 0.00 0.00 0.00 77 1051.9
20260508193104 76 127 1.0 2.0 0.00 0.00 0.00 76 1051.9
20260508192601 76 144 5.0 8.0 0.00 0.00 0.00 78 1052.0
20260508192058 76 148 5.0 9.0 0.00 0.00 0.00 77 1052.0
20260508191554 76 63 1.0 4.0 0.00 0.00 0.00 77 1052.0
20260508191051 76 76 1.0 9.0 0.00 0.00 0.00 77 1052.2
20260508190548 76 124 2.0 6.0 0.00 0.00 0.00 77 1052.2
20260508190044 76 133 6.0 10.0 0.00 0.00 0.00 77 1052.4
20260508185542 76 145 3.0 8.0 0.00 0.00 0.00 78 1052.3
20260508185039 75 149 6.0 8.0 0.00 0.00 0.00 78 1052.5
20260508184537 75 134 7.0 9.0 0.00 0.00 0.00 79 1052.3
20260508184033 75 114 2.0 9.0 0.00 0.00 0.00 80 1052.6
20260508183530 75 116 5.0 7.0 0.00 0.00 0.00 78 1052.6
20260508183026 75 126 1.0 6.0 0.00 0.00 0.00 79 1052.7
20260508182523 75 120 5.0 10.0 0.00 0.00 0.00 79 1052.9
20260508182019 75 133 7.0 9.0 0.00 0.00 0.00 78 1052.8
20260508181514 75 163 6.0 8.0 0.00 0.00 0.00 78 1052.9
20260508181013 75 163 5.0 8.0 0.00 0.00 0.00 78 1052.5
20260508180509 75 150 6.0 9.0 0.00 0.00 0.00 79 1052.9
20260508180005 76 159 4.0 8.0 0.00 0.00 0.00 78 1052.8
20260508175501 77 119 6.0 9.0 0.00 0.00 0.00 77 1052.9
20260508174959 77 95 3.0 9.0 0.00 0.00 0.00 76 1052.9
20260508174457 76 138 2.0 4.0 0.00 0.00 0.00 76 1052.9
20260508173953 77 95 2.0 4.0 0.00 0.00 0.00 73 1052.9
20260508173450 79 51 1.0 2.0 0.00 0.00 0.00 71 1053.1
20260508172946 78 38 1.0 2.0 0.00 0.00 0.00 72 1053.3
20260508172444 76 65 0.0 4.0 0.00 0.00 0.00 74 1053.3
20260508171940 76 61 1.0 3.0 0.00 0.00 0.00 74 1053.3
20260508171436 76 44 0.0 3.0 0.00 0.00 0.00 75 1053.3
20260508170933 76 5 1.0 2.0 0.00 0.00 0.00 73 1053.4
20260508170431 75 5 0.0 2.0 0.00 0.00 0.00 76 1053.7
20260508165927 74 5 1.0 4.0 0.00 0.00 0.00 77 1053.7
20260508165425 75 355 0.0 0.0 0.00 0.00 0.00 76 1053.6
20260508164921 74 355 1.0 2.0 0.00 0.00 0.00 77 1053.8
20260508164418 73 354 1.0 2.0 0.00 0.00 0.00 78 1053.9
20260508163916 74 354 2.0 2.0 0.00 0.00 0.00 77 1053.8
20260508163413 74 11 1.0 3.0 0.00 0.00 0.00 77 1053.8
20260508162908 74 351 1.0 2.0 0.00 0.00 0.00 76 1053.8
20260508162406 74 25 1.0 2.0 0.00 0.00 0.00 75 1054.2
20260508161902 73 62 0.0 2.0 0.00 0.00 0.00 76 1054.2
20260508161400 73 80 1.0 2.0 0.00 0.00 0.00 76 1054.2
20260508160857 71 209 0.0 3.0 0.00 0.00 0.00 79 1054.4
20260508160355 70 127 2.0 3.0 0.00 0.00 0.00 79 1054.6
20260508155852 70 184 1.0 2.0 0.00 0.00 0.00 81 1054.6
20260508155349 70 103 1.0 2.0 0.00 0.00 0.00 79 1054.4
20260508154846 69 180 0.0 2.0 0.00 0.00 0.00 79 1054.6
20260508154343 70 144 2.0 2.0 0.00 0.00 0.00 76 1054.4
20260508153839 68 183 2.0 3.0 0.00 0.00 0.00 79 1054.8
20260508153337 67 224 2.0 3.0 0.00 0.00 0.00 81 1054.8
20260508152833 66 124 0.0 2.0 0.00 0.00 0.00 82 1054.9
20260508152329 66 124 2.0 2.0 0.00 0.00 0.00 83 1055.1
20260508151826 66 161 1.0 2.0 0.00 0.00 0.00 82 1054.9
20260508151324 66 144 3.0 4.0 0.00 0.00 0.00 83 1055.0
20260508150819 65 128 1.0 2.0 0.00 0.00 0.00 84 1055.0
20260508150316 65 182 2.0 3.0 0.00 0.00 0.00 84 1055.3
20260508145807 65 185 2.0 4.0 0.00 0.00 0.00 83 1055.3
20260508145306 65 175 1.0 3.0 0.00 0.00 0.00 84 1055.1
20260508144800 64 127 4.0 4.0 0.00 0.00 0.00 82 1054.9
20260508144258 64 119 2.0 2.0 0.00 0.00 0.00 84 1055.0
20260508143755 64 119 1.0 2.0 0.00 0.00 0.00 84 1055.0
20260508143252 63 118 1.0 4.0 0.00 0.00 0.00 85 1054.9
20260508142748 63 120 3.0 6.0 0.00 0.00 0.00 85 1055.2
20260508142246 63 124 3.0 4.0 0.00 0.00 0.00 85 1055.1
20260508141742 63 128 4.0 4.0 0.00 0.00 0.00 85 1055.2
20260508141240 63 133 2.0 3.0 0.00 0.00 0.00 85 1055.0
20260508140737 64 113 2.0 3.0 0.00 0.00 0.00 84 1054.9
20260508140233 63 112 2.0 3.0 0.00 0.00 0.00 84 1054.9
20260508135730 63 77 1.0 3.0 0.00 0.00 0.00 85 1054.9
20260508135226 63 59 0.0 2.0 0.00 0.00 0.00 85 1055.1
20260508134721 63 59 0.0 2.0 0.00 0.00 0.00 85 1055.0
20260508134219 62 58 0.0 1.0 0.00 0.00 0.00 85 1055.1
20260508133716 62 58 0.0 0.0 0.00 0.00 0.00 86 1055.3
20260508133214 62 58 1.0 2.0 0.00 0.00 0.00 86 1055.3
20260508132711 62 46 0.0 1.0 0.00 0.00 0.00 87 1055.1
20260508132208 61 56 0.0 2.0 0.00 0.00 0.00 86 1055.1
20260508131703 61 44 2.0 2.0 0.00 0.00 0.00 87 1055.1
20260508131200 62 44 1.0 2.0 0.00 0.00 0.00 86 1055.4
20260508130657 61 45 0.0 0.0 0.00 0.00 0.00 87 1055.1
20260508130154 61 45 1.0 2.0 0.00 0.00 0.00 87 1055.1
20260508125649 61 45 0.0 0.0 0.00 0.00 0.00 87 1055.4
20260508125146 61 45 0.0 1.0 0.00 0.00 0.00 87 1055.2
20260508124644 61 45 1.0 1.0 0.00 0.00 0.00 87 1055.5
20260508124141 61 37 0.0 0.0 0.00 0.00 0.00 87 1055.5
20260508123640 60 37 0.0 0.0 0.00 0.00 0.00 87 1055.5
20260508123137 60 36 0.0 1.0 0.00 0.00 0.00 87 1055.5
20260508122633 60 19 1.0 2.0 0.00 0.00 0.00 88 1055.3
20260508122130 60 59 0.0 3.0 0.00 0.00 0.00 88 1055.4
20260508121628 60 54 2.0 3.0 0.00 0.00 0.00 88 1055.3
20260508121126 60 49 1.0 1.0 0.00 0.00 0.00 88 1055.5
20260508120623 60 51 0.0 0.0 0.00 0.00 0.00 89 1055.4
20260508120122 60 51 1.0 1.0 0.00 0.00 0.00 89 1055.4
20260508115619 60 51 0.0 1.0 0.00 0.00 0.00 89 1055.4
20260508115115 60 51 1.0 1.0 0.00 0.00 0.00 89 1055.5
20260508114613 60 2 0.0 1.0 0.00 0.00 0.00 89 1055.6
20260508114108 60 2 0.0 0.0 0.00 0.00 0.00 89 1055.7
20260508113606 60 2 0.0 0.0 0.00 0.00 0.00 89 1055.7
20260508113104 60 2 0.0 0.0 0.00 0.00 0.00 89 1055.9
20260508112559 60 2 0.0 0.0 0.00 0.00 0.00 88 1055.9
20260508112057 60 2 0.0 0.0 0.00 0.00 0.00 88 1056.0
20260508111554 60 2 0.0 0.0 0.00 0.00 0.00 88 1055.8
20260508111051 60 2 0.0 0.0 0.00 0.00 0.00 88 1055.8
20260508110549 60 2 0.0 1.0 0.00 0.00 0.00 88 1055.7
20260508110044 60 2 2.0 2.0 0.00 0.00 0.00 88 1055.9
20260508105539 60 2 0.0 0.0 0.00 0.00 0.00 88 1055.8
20260508105037 60 2 0.0 0.0 0.00 0.00 0.00 88 1055.6
20260508104535 60 2 1.0 3.0 0.00 0.00 0.00 88 1055.8
20260508104031 60 19 1.0 3.0 0.00 0.00 0.00 89 1055.7
20260508103528 60 10 1.0 3.0 0.00 0.00 0.00 89 1055.9
20260508103025 60 11 1.0 3.0 0.00 0.00 0.00 89 1055.6
20260508102523 60 358 3.0 3.0 0.00 0.00 0.00 88 1055.7
20260508102021 60 5 2.0 2.0 0.00 0.00 0.00 87 1055.5
20260508101518 60 18 1.0 3.0 0.00 0.00 0.00 86 1055.7
20260508101015 60 19 1.0 4.0 0.00 0.00 0.00 86 1055.6
20260508100513 60 21 2.0 3.0 0.00 0.00 0.00 86 1055.6
20260508100009 60 62 1.0 3.0 0.00 0.00 0.00 85 1055.6
20260508095507 60 62 0.0 3.0 0.00 0.00 0.00 85 1055.8
20260508095003 60 62 1.0 2.0 0.00 0.00 0.00 85 1056.0
20260508094501 60 62 1.0 1.0 0.00 0.00 0.00 85 1056.0
20260508093957 60 62 0.0 1.0 0.00 0.00 0.00 85 1055.9
20260508093454 60 62 0.0 0.0 0.00 0.00 0.00 85 1055.8
20260508092952 60 62 0.0 0.0 0.00 0.00 0.00 85 1055.8
20260508092449 60 62 0.0 0.0 0.00 0.00 0.00 85 1055.9
20260508091948 60 62 0.0 0.0 0.00 0.00 0.00 84 1055.8
20260508091444 60 62 0.0 0.0 0.00 0.00 0.00 85 1055.9
20260508090942 60 62 0.0 0.0 0.00 0.00 0.00 84 1056.1
20260508090440 60 62 0.0 0.0 0.00 0.00 0.00 84 1055.9
20260508085935 60 62 0.0 0.0 0.00 0.00 0.00 83 1055.9
20260508085432 60 62 0.0 0.0 0.00 0.00 0.00 83 1055.6
20260508084929 60 62 0.0 2.0 0.00 0.00 0.00 83 1055.5
20260508084425 60 62 0.0 0.0 0.00 0.00 0.00 84 1055.6
20260508083923 60 62 0.0 1.0 0.00 0.00 0.00 84 1055.7
20260508083420 60 62 0.0 0.0 0.00 0.00 0.00 84 1055.7
20260508082914 60 62 1.0 2.0 0.00 0.00 0.00 83 1055.7
20260508082412 60 62 0.0 0.0 0.00 0.00 0.00 84 1055.8
20260508081910 60 62 0.0 0.0 0.00 0.00 0.00 84 1055.8
20260508081407 60 62 0.0 1.0 0.00 0.00 0.00 84 1055.7
20260508080903 60 62 1.0 2.0 0.00 0.00 0.00 83 1055.9
20260508080402 60 61 0.0 0.0 0.00 0.00 0.00 84 1055.9
20260508075857 60 61 0.0 0.0 0.00 0.00 0.00 83 1056.0
20260508075355 60 61 0.0 0.0 0.00 0.00 0.00 85 1055.9
20260508074853 60 61 0.0 0.0 0.00 0.00 0.00 83 1056.0
20260508074349 60 61 0.0 1.0 0.00 0.00 0.00 84 1055.6
20260508073846 60 61 0.0 2.0 0.00 0.00 0.00 84 1055.9
20260508073344 60 62 1.0 1.0 0.00 0.00 0.00 84 1055.8
20260508072840 60 61 1.0 2.0 0.00 0.00 0.00 84 1055.8
20260508072336 60 57 0.0 0.0 0.00 0.00 0.00 84 1055.9
20260508071834 60 44 1.0 2.0 0.00 0.00 0.00 83 1056.0
20260508071333 60 73 0.0 3.0 0.00 0.00 0.00 84 1055.8
20260508070830 60 47 1.0 2.0 0.00 0.00 0.00 85 1055.8
20260508070328 60 45 0.0 1.0 0.00 0.00 0.00 85 1055.8
20260508065825 60 46 0.0 1.0 0.00 0.00 0.00 85 1055.8
20260508065322 60 44 0.0 1.0 0.00 0.00 0.00 85 1055.7
20260508064820 60 44 1.0 1.0 0.00 0.00 0.00 85 1055.9
20260508064318 60 46 0.0 2.0 0.00 0.00 0.00 86 1056.1
20260508063815 60 46 0.0 0.0 0.00 0.00 0.00 86 1056.3
20260508063313 60 46 1.0 2.0 0.00 0.00 0.00 85 1056.3
20260508062810 60 46 0.0 0.0 0.00 0.00 0.00 86 1056.5
20260508062307 60 46 0.0 0.0 0.00 0.00 0.00 86 1056.5
20260508061804 59 46 0.0 1.0 0.00 0.00 0.00 86 1056.7
20260508061301 59 46 0.0 0.0 0.00 0.00 0.00 87 1056.5
20260508060758 59 46 0.0 0.0 0.00 0.00 0.00 86 1056.7
20260508060256 59 46 0.0 0.0 0.00 0.00 0.00 86 1056.6
20260508055751 59 46 0.0 0.0 0.00 0.00 0.00 85 1056.6
20260508055248 60 46 0.0 0.0 0.00 0.00 0.00 85 1056.5
20260508054744 60 46 0.0 1.0 0.00 0.00 0.00 85 1056.4
20260508054243 60 46 1.0 1.0 0.00 0.00 0.00 84 1056.2
20260508053739 60 46 0.0 0.0 0.00 0.00 0.00 84 1056.5
20260508053236 60 46 0.0 0.0 0.00 0.00 0.00 84 1056.6
20260508052734 60 46 0.0 0.0 0.00 0.00 0.00 84 1056.5
20260508052231 60 46 0.0 2.0 0.00 0.00 0.00 83 1056.7
20260508051727 60 46 0.0 0.0 0.00 0.00 0.00 83 1056.7
20260508051222 60 46 0.0 0.0 0.00 0.00 0.00 83 1056.5
20260508050719 60 46 0.0 1.0 0.00 0.00 0.00 83 1056.4
20260508050217 60 46 0.0 0.0 0.00 0.00 0.00 83 1056.6
20260508045718 60 46 0.0 1.0 0.00 0.01 0.01 82 1056.2
20260508045216 60 43 1.0 1.0 0.00 0.01 0.01 81 1056.4
20260508044713 60 43 0.0 1.0 0.00 0.01 0.01 82 1056.6
20260508044209 60 43 1.0 1.0 0.00 0.01 0.01 82 1056.8
20260508043705 60 43 0.0 1.0 0.00 0.01 0.01 81 1056.8
20260508043204 60 355 1.0 4.0 0.00 0.01 0.01 82 1057.2
20260508042659 60 8 2.0 4.0 0.00 0.01 0.01 82 1057.4
20260508042157 60 56 1.0 1.0 0.00 0.01 0.01 83 1056.5
20260508041653 60 68 1.0 4.0 0.00 0.01 0.01 82 1055.9
20260508041150 60 69 2.0 3.0 0.00 0.01 0.01 82 1056.0
20260508040647 60 348 0.0 1.0 0.00 0.01 0.01 83 1056.3
20260508040144 60 348 0.0 2.0 0.00 0.01 0.01 82 1056.8
20260508035641 60 348 0.0 3.0 0.00 0.01 0.01 82 1056.5
20260508035139 60 346 0.0 1.0 0.00 0.01 0.01 83 1056.7
20260508034635 60 346 1.0 2.0 0.00 0.01 0.01 83 1056.7
20260508034132 59 346 1.0 1.0 0.00 0.01 0.01 85 1056.9
20260508033630 59 346 0.0 0.0 0.00 0.01 0.01 86 1056.8
20260508033128 60 346 0.0 0.0 0.00 0.01 0.01 84 1057.0
20260508032624 60 346 0.0 0.0 0.00 0.01 0.01 84 1057.4
20260508032122 60 346 0.0 1.0 0.00 0.01 0.01 83 1057.4
20260508031619 60 346 1.0 1.0 0.00 0.01 0.01 83 1057.5
20260508031115 60 346 0.0 0.0 0.00 0.01 0.01 83 1057.5
20260508030611 61 345 0.0 2.0 0.00 0.01 0.01 81 1057.4
20260508030109 61 346 1.0 2.0 0.00 0.01 0.01 81 1057.7
20260508025605 61 346 0.0 2.0 0.00 0.01 0.01 81 1057.6
20260508025102 61 7 2.0 3.0 0.00 0.01 0.01 80 1057.3
20260508024558 61 67 0.0 0.0 0.00 0.01 0.01 80 1057.0
20260508024056 61 67 0.0 0.0 0.00 0.01 0.01 79 1056.5
20260508023552 61 67 0.0 0.0 0.00 0.01 0.01 79 1056.2
20260508023049 61 67 1.0 1.0 0.00 0.01 0.01 78 1056.1
20260508022545 61 67 0.0 1.0 0.00 0.01 0.01 78 1055.9
20260508022042 61 74 0.0 0.0 0.00 0.01 0.01 78 1055.8
20260508021538 61 74 0.0 1.0 0.00 0.01 0.01 78 1055.4
20260508021034 61 90 2.0 3.0 0.00 0.01 0.01 77 1054.9
20260508020532 62 52 0.0 4.0 0.00 0.01 0.01 77 1054.8
20260508020029 61 44 1.0 2.0 0.00 0.01 0.01 76 1055.1
20260508015526 62 58 1.0 1.0 0.00 0.01 0.01 76 1055.3
20260508015024 62 71 0.0 3.0 0.00 0.01 0.01 76 1055.3
20260508014520 62 37 0.0 1.0 0.00 0.01 0.01 76 1055.6
20260508014016 62 78 2.0 4.0 0.00 0.01 0.01 75 1055.0
20260508013512 62 76 2.0 6.0 0.00 0.01 0.01 74 1055.1
20260508013010 62 77 3.0 3.0 0.00 0.01 0.01 74 1055.0
20260508012507 63 125 5.0 7.0 0.00 0.01 0.01 74 1055.1
20260508012004 63 117 1.0 6.0 0.00 0.01 0.01 74 1055.1
20260508011502 63 77 2.0 7.0 0.00 0.01 0.01 73 1055.4
20260508010959 63 78 3.0 4.0 0.00 0.01 0.01 73 1055.5
20260508010456 63 57 0.0 3.0 0.00 0.01 0.01 74 1055.5
20260508005953 63 72 2.0 8.0 0.00 0.01 0.01 72 1055.4
20260508005450 63 25 3.0 4.0 0.00 0.01 0.01 73 1055.7
20260508004946 63 44 3.0 4.0 0.00 0.01 0.01 73 1055.5
20260508004442 64 57 2.0 9.0 0.00 0.01 0.01 73 1055.1
20260508003939 64 74 3.0 4.0 0.00 0.01 0.01 73 1055.3
20260508003436 64 34 2.0 2.0 0.00 0.01 0.01 73 1055.8
20260508002933 64 58 0.0 4.0 0.00 0.01 0.01 75 1055.7
20260508002430 64 114 2.0 8.0 0.00 0.01 0.01 73 1055.6
20260508001926 64 40 2.0 3.0 0.00 0.01 0.01 75 1055.9
20260508001423 64 100 4.0 7.0 0.00 0.01 0.01 74 1055.6
20260508000919 64 53 1.0 3.0 0.00 0.01 0.01 73 1056.4
20260508000415 64 19 1.0 2.0 0.00 0.01 0.01 73 1056.4
20260507235912 64 47 1.0 2.0 0.00 0.01 0.01 73 1056.3
20260507235409 65 47 1.0 6.0 0.00 0.01 0.01 71 1055.9
20260507234906 65 63 1.0 3.0 0.00 0.01 0.01 72 1056.3
20260507234403 65 52 2.0 2.0 0.00 0.01 0.01 72 1056.6
20260507233859 65 41 0.0 2.0 0.00 0.01 0.01 71 1056.7
20260507233357 65 42 0.0 2.0 0.00 0.01 0.01 69 1056.9
20260507232855 66 31 1.0 3.0 0.00 0.01 0.01 68 1056.8
20260507232351 66 48 1.0 2.0 0.00 0.01 0.01 68 1056.6
20260507231849 67 130 3.0 4.0 0.00 0.01 0.01 68 1056.6
20260507231345 67 56 0.0 0.0 0.00 0.01 0.01 69 1056.5
20260507230841 66 71 1.0 2.0 0.00 0.01 0.01 70 1056.5
20260507230338 66 26 3.0 6.0 0.00 0.01 0.01 70 1056.6
20260507225838 66 1 2.0 3.0 0.00 0.01 0.01 69 1056.7
20260507225334 66 43 1.0 3.0 0.00 0.01 0.01 69 1056.8